sat.trackr.live / text

‹ back to catalog

HOTSAT-2

NORAD 68465 · 2026-067BB

PAYLOAD ACTIVE UNKNOWN

§ Identity

Operator
Country
UK
Launch date
2026-03-30
Launch site
AFWTR
Launch vehicle
Mass (kg)
RCS (m²)

External: N2YO · Heavens-Above · Gunter

§ Orbital elements

Epoch: 2026-05-25T03:52:53.120352Z

Period
94.90 min
Inclination
97.4512°
Eccentricity
0.0004489
Mean motion
15.17386514 rev/d
Perigee alt
510.6 km
Apogee alt
516.8 km
Semi-major
6,891.9 km
B*
1.5022e-4
RAAN
103.8944°
Arg perigee
130.8306°
Mean anomaly
229.3318°
Rev number
844

§ Raw data

HOTSAT-21 68465U 26067BB  26145.16172593  .00002934  00000+0  15022-3 0  99922 68465  97.4512 103.8944 0004489 130.8306 229.3318 15.17386514  8449

JSON: /api/v1/satellites/68465 · /tle

For live sub-satellite position, see the globe view (requires WebGL).

§ Visibility from observer

Set your observer location to see the next 7 days of passes ≥ 10°. The values pass through the URL so the page stays shareable.

No JS? Fill the form by hand. The geolocation button needs JavaScript.